SL-16 DEB, 44574

Orbit data source: Space-Track

SL-16 DEB, 44574 is space debris in LEO originally from a launch on Fri, 25 Dec 1992 UTC launched from the Tyuratam Missile And Space Complex (TTMTR). Debris objects in space refer to the collection of defunct objects orbiting the Earth. Examples of debris include non-operational satellites, rocket bodies, and fragments generated from explosions, collisions, or faulty payload assembly.

Loading next visibility...
Identifier
44574, 1992-093LW
Orbit
LEO
Country
Flag of CISCIS
Related business
Manufacturer
Unknown
Mission
Spacecraft
Bus & Motor
Unknown
Mass
Unknown
Launch date (UTC)
1992-12-25 (33 years ago)
Launch vehicle
Unknown
Launch site
Tyuratam Missile And Space Complex (TTMTR)
Object type
Payload
Rocket body
Debris
Shape & HBR
Unknown shape, 0.1 m
Radar Cross Section
Small (<0.1 m²)

Expand to show TLE details & history
Last TLE update: 14 hours ago

TLE from 14 hours ago
0 SL-16 DEB
1 44574U 92093LW  26132.52202485  .00003609  00000-0  85664-3 0  9999
2 44574  71.1174 167.4604 0078166  57.1603 103.1818 14.52754843649571
Epoch: 2026-05-12T12:31Z
TLE epoch observation values (Epoch: 2026-05-12T12:31:42.947Z)
Latitude
17.74206°
Longitude
-77.01271°
Altitude
731.595 km
Speed
7.484 km/s
True Right ascension
22h 44m 50s
True Declination
17° 38' 32"
Sunlit
Object was in daylight at epoch
Visualization orbit readout
Latitude
Unknown
Longitude
Unknown
Altitude
Unknown
Speed
Unknown
Apparent Right ascension
Unknown
Apparent Declination
Unknown
Sunlit
N/A
Visualization observer readout
Local Sidereal Time
10:39:41
Azimuth
Unknown
Elevation
Unknown
Doppler factor
Unknown
Orbital elements
Apogee altitude
769.982 km
Perigee altitude
659.101 km
Semi-major axis
7,092.678 km
Eccentricity
0.00782
Inclination
71.1174°
RAAN
167.4604°
Arg. of periapsis
57.1603°
True anomaly
104.05194°
Mean anomaly
103.1818°
Eccentric anomaly
103.61707°
Mean motion
3.63352 °/min
Orbital period
99.08 mins
BSTAR
0.00085664
Loading maneuver chart data...
Computing Atmospheric mass density...
Loading historical data...
Loading historical data...
Loading historical data...
Loading historical data...
Loading historical data...
Loading historical data...
Loading historical data...

Documentation

Showing up to 5 results
|